Location: Breungeshain
(50.5000°N, 9.2000°E)
Time: 09:47:00
(UTC+00:00)

ISS - Pass Details

Date: 27 May 2017
Orbit: 402 x 409 km, 51.6° (Epoch: 24 May)

Event Time Altitude Azimuth Distance (km) Brightness Sun altitude
Rises 00:32:43 0° 286° (WNW) 2,333 0.0 -16.4°
Reaches altitude 10° 00:34:50 10° 282° (WNW) 1,469 -1.1 -16.3°
Maximum altitude 00:38:03 54° 204° (SSW) 499 -3.8 -16.2°
Drops below altitude 10° 00:41:16 10° 126° (SE) 1,459 -1.2 -16.0°
Sets 00:43:21 0° 122° (ESE) 2,315 -0.1 -15.9°
